Regional Weather Roundup
Issued by NWS

Home | Current Version | Previous Version | Text Only | Print | Product List | Glossary On
Versions: 1 2 3 4 5 6 7 8 9 10 11 12 13 14 15 16 17 18 19 20 21 22 23 24 25 26 27
000
ASUS45 KREV 212110
RWRNV
NEVADA REGIONAL WEATHER ROUNDUP
NATIONAL WEATHER SERVICE RENO NV
100 PM PST WED FEB 21 2018

NOTE: "FAIR" INDICATES FEW OR NO CLOUDS BELOW 12,000 FEET WITH NO
SIGNIFICANT WEATHER AND/OR OBSTRUCTIONS TO VISIBILITY.

NVZ001-003-004-212200-
WESTERN NEVADA

CITY           SKY/WX    TMP DP  RH WIND       PRES   REMARKS
RENO           FAIR      38   6  26 VRB3      30.06F
CARSON CITY    FAIR      37   1  22 N5        30.06F
MINDEN         FAIR      36   3  25 E10G16    30.06F
PYRAMID LAKE     N/A     36 N/A N/A N6          N/A
FALLON         FAIR      38   8  29 VRB3      30.09F
LOVELOCK       FAIR      36   9  32 VRB3      30.09F
HAWTHORNE      SUNNY     37   7  28 VRB5      30.05F
$$

NVZ002-CAZ072-073-212200-
NORTHERN AND CENTRAL SIERRA

CITY           SKY/WX    TMP DP  RH WIND       PRES   REMARKS
S. LAKE TAHOE  FAIR      30   5  34 VRB6      29.99F
TRUCKEE        MOSUNNY   30   3  31 CALM      30.01F
SQUAW VLY 8000   N/A     23   3  42 N1          N/A
SUSANVILLE     SUNNY     37   5  25 CALM      30.08F
BLUE CANYON    FAIR      34   3  27 NW7       30.04F
MAMMOTH LAKES  PTSUNNY   31   3  31 W6        29.97F
BRIDGEPORT     PTSUNNY   29   3  33 CALM      29.94F
$$

NVZ030-031-036-212200-
NORTHERN NEVADA

CITY           SKY/WX    TMP DP  RH WIND       PRES   REMARKS
ELKO           FAIR      29   9  43 SW8       30.05F
WINNEMUCCA     PTSUNNY   35  11  36 VRB5      30.07F
WENDOVER       FAIR      30  12  47 E8        30.11F
$$

NVZ035-037-212200-
CENTRAL NEVADA

CITY           SKY/WX    TMP DP  RH WIND       PRES   REMARKS
ELY            FAIR      29   4  34 SE8       29.97F
EUREKA           N/A     30   8  39 VRB3      30.00F
$$

NVZ013-014-212200-
SOUTH CENTRAL NEVADA

CITY           SKY/WX    TMP DP  RH WIND       PRES   REMARKS
TONOPAH        CLOUDY    35   5  28 VRB5      30.01F
$$

NVZ017-020-022-212200-
SOUTHERN NEVADA

CITY           SKY/WX    TMP DP  RH WIND       PRES   REMARKS
LAS VEGAS      PTSUNNY   49   7  18 NE6       30.10F
N. LAS VEGAS   PTSUNNY   47  -2  13 S8        30.09F
NELLIS AFB     CLOUDY    49   3  15 CALM      30.09F
HENDERSON      CLOUDY    46   7  20 SE6       30.10F
MERCURY        PTSUNNY   46   1  15 W8        30.04F
$$




USA.gov is the U.S. government's official web portal to all federal, state and local government web resources and services.